Check out our new BloomSky Weather System.

Active alerts

Galveston, TX
  Details for Galveston, TX Coastal Flood Advisory  +2 additional alerts
Houston, TX
  Details for Houston, TX Flash Flood Watch
Fort Bend, TX
  Details for Fort Bend, TX Flash Flood Watch


Thunder radar  blitzortung!


Rain radar more information rain snow radar


Visit our other weather sites:

Template documentation
and downloads

And another site



Weather Underground History page Text

Daily Summary for February 9, 2018 Units:  English    Metric   Both
« Previous Day
Next Day »
Daily Weekly Monthly Yearly Custom
  High: Low: Average:
Temperature: TemperatureF °F 55.0 °F 62.1 °F
Dew Point: DewpointF °F 49.1 °F 57.8 °F
Humidity: Humidity % 79 % 86 %
Wind Speed: WindSpeedMPH mph 0.0 mph 1.5 mph
Wind Gust: WindSpeedGustMPH mph - -
Wind:- - SE
Pressure: PressureIn in 29.98 in -
Precipitation: 0.04 in    
Historical Graphs
 
 
Tabular Data for February 9, 2018
Time Temperature Dew Point Pressure Wind Wind Speed Wind Gust Humidity Rainfall Rate (Hourly)
TemperatureF °F DewpointF °F PressureIn in Calm     Humidity % HourlyPrecipIn in
00:02 55.2 °F 50.2 °F 30.26 in Calm   1.0 mph 83 % 0.00 in
00:07 55.2 °F 50.2 °F 30.25 in Calm   1.0 mph 83 % 0.00 in
00:12 55.2 °F 50.2 °F 30.25 in ESE 1.0 mph 1.0 mph 83 % 0.00 in
00:17 55.2 °F 50.2 °F 30.25 in Calm   1.0 mph 83 % 0.00 in
00:22 55.0 °F 50.0 °F 30.25 in NE 1.0 mph 1.0 mph 83 % 0.00 in
00:27 55.2 °F 50.2 °F 30.25 in SE 2.0 mph 4.0 mph 83 % 0.00 in
00:32 55.2 °F 49.8 °F 30.24 in ESE 3.0 mph 4.0 mph 82 % 0.00 in
00:37 55.4 °F 49.6 °F 30.25 in South 4.0 mph 10.0 mph 81 % 0.00 in
00:42 55.6 °F 49.8 °F 30.25 in South 3.0 mph 10.0 mph 81 % 0.00 in
00:47 55.8 °F 49.6 °F 30.24 in SE 2.0 mph 10.0 mph 80 % 0.00 in
00:52 55.8 °F 49.6 °F 30.24 in SE 7.0 mph 8.0 mph 80 % 0.00 in
00:57 55.8 °F 49.3 °F 30.24 in SSE 7.0 mph 8.0 mph 79 % 0.00 in
01:02 55.8 °F 49.3 °F 30.24 in East 2.0 mph 11.0 mph 79 % 0.00 in
01:07 55.8 °F 49.3 °F 30.24 in SSE 5.0 mph 11.0 mph 79 % 0.00 in
01:12 55.8 °F 49.6 °F 30.23 in SSE 4.0 mph 11.0 mph 80 % 0.00 in
01:17 55.8 °F 49.3 °F 30.23 in ESE 2.0 mph 9.0 mph 79 % 0.00 in
01:22 55.8 °F 49.6 °F 30.23 in SSE 3.0 mph 9.0 mph 80 % 0.00 in
01:27 55.8 °F 49.6 °F 30.23 in SSE 3.0 mph 9.0 mph 80 % 0.00 in
01:32 55.6 °F 49.5 °F 30.22 in ESE 3.0 mph 7.0 mph 80 % 0.00 in
01:37 55.6 °F 49.8 °F 30.22 in ESE 3.0 mph 6.0 mph 81 % 0.00 in
01:42 55.6 °F 49.8 °F 30.22 in SE 3.0 mph 5.0 mph 81 % 0.00 in
01:47 55.4 °F 49.3 °F 30.22 in ESE 3.0 mph 7.0 mph 80 % 0.00 in
01:52 55.2 °F 49.1 °F 30.22 in SE 4.0 mph 7.0 mph 80 % 0.00 in
01:57 55.2 °F 49.1 °F 30.22 in SSE 5.0 mph 7.0 mph 80 % 0.00 in
02:02 55.2 °F 49.1 °F 30.21 in SE 3.0 mph 7.0 mph 80 % 0.00 in
02:07 55.2 °F 49.5 °F 30.21 in SE 8.0 mph 8.0 mph 81 % 0.00 in
02:12 55.2 °F 49.5 °F 30.21 in ESE 6.0 mph 9.0 mph 81 % 0.00 in
02:17 55.4 °F 49.6 °F 30.21 in SSW 2.0 mph 9.0 mph 81 % 0.00 in
02:22 55.4 °F 49.6 °F 30.21 in SE 2.0 mph 9.0 mph 81 % 0.00 in
02:27 55.4 °F 49.6 °F 30.20 in SSE 4.0 mph 8.0 mph 81 % 0.00 in
02:32 55.4 °F 49.3 °F 30.20 in SSE 3.0 mph 8.0 mph 80 % 0.00 in
02:37 55.6 °F 49.5 °F 30.20 in SE 6.0 mph 8.0 mph 80 % 0.00 in
02:42 55.6 °F 49.5 °F 30.19 in SE 3.0 mph 7.0 mph 80 % 0.00 in
02:47 55.6 °F 49.5 °F 30.19 in SSE 3.0 mph 7.0 mph 80 % 0.00 in
02:52 55.6 °F 49.5 °F 30.19 in South 3.0 mph 7.0 mph 80 % 0.00 in
02:57 55.6 °F 49.5 °F 30.19 in SSW 2.0 mph 6.0 mph 80 % 0.00 in
03:02 55.6 °F 49.5 °F 30.19 in SSW 2.0 mph 6.0 mph 80 % 0.00 in
03:07 55.6 °F 49.8 °F 30.18 in SE 5.0 mph 6.0 mph 81 % 0.00 in
03:12 55.6 °F 49.8 °F 30.18 in ESE 6.0 mph 6.0 mph 81 % 0.00 in
03:17 55.6 °F 50.2 °F 30.18 in South 5.0 mph 9.0 mph 82 % 0.00 in
03:22 55.4 °F 50.0 °F 30.18 in SSE 2.0 mph 9.0 mph 82 % 0.00 in
03:27 55.4 °F 50.4 °F 30.18 in SSW 1.0 mph 9.0 mph 83 % 0.00 in
03:32 55.4 °F 50.4 °F 30.18 in SE 4.0 mph 8.0 mph 83 % 0.00 in
03:37 55.4 °F 50.4 °F 30.18 in South 3.0 mph 6.0 mph 83 % 0.00 in
03:42 55.2 °F 50.2 °F 30.18 in SSE 2.0 mph 6.0 mph 83 % 0.00 in
03:47 55.4 °F 50.4 °F 30.18 in SSE 3.0 mph 6.0 mph 83 % 0.00 in
03:52 55.4 °F 50.4 °F 30.18 in SSE 1.0 mph 6.0 mph 83 % 0.00 in
03:57 55.4 °F 50.4 °F 30.17 in Calm   5.0 mph 83 % 0.00 in
04:02 55.4 °F 50.4 °F 30.17 in Calm   5.0 mph 83 % 0.00 in
04:07 55.4 °F 50.4 °F 30.17 in Calm   4.0 mph 83 % 0.00 in
04:12 55.4 °F 50.4 °F 30.17 in SSW 2.0 mph 3.0 mph 83 % 0.00 in
04:17 55.2 °F 50.2 °F 30.17 in South 1.0 mph 3.0 mph 83 % 0.00 in
04:22 55.2 °F 50.2 °F 30.17 in South 1.0 mph 2.0 mph 83 % 0.00 in
04:27 55.2 °F 50.2 °F 30.17 in SE 1.0 mph 2.0 mph 83 % 0.00 in
04:32 55.2 °F 49.8 °F 30.17 in Calm   2.0 mph 82 % 0.00 in
04:37 55.2 °F 49.8 °F 30.17 in Calm   2.0 mph 82 % 0.00 in
04:42 55.2 °F 49.8 °F 30.17 in Calm   2.0 mph 82 % 0.00 in
04:47 55.2 °F 49.8 °F 30.17 in Calm   1.0 mph 82 % 0.00 in
04:52 55.2 °F 49.8 °F 30.17 in Calm     82 % 0.00 in
04:57 55.2 °F 49.8 °F 30.17 in Calm     82 % 0.00 in
05:02 55.2 °F 49.8 °F 30.17 in Calm   1.0 mph 82 % 0.00 in
05:07 55.2 °F 49.8 °F 30.17 in Calm   1.0 mph 82 % 0.00 in
05:12 55.2 °F 49.8 °F 30.17 in Calm   1.0 mph 82 % 0.00 in
05:17 55.4 °F 50.0 °F 30.17 in Calm   1.0 mph 82 % 0.00 in
05:22 55.4 °F 50.4 °F 30.17 in Calm     83 % 0.00 in
05:27 55.4 °F 50.0 °F 30.17 in Calm     82 % 0.00 in
05:32 55.4 °F 50.4 °F 30.17 in Calm     83 % 0.00 in
05:37 55.6 °F 50.5 °F 30.17 in Calm   1.0 mph 83 % 0.00 in
05:42 55.6 °F 50.5 °F 30.17 in Calm   1.0 mph 83 % 0.00 in
05:47 55.6 °F 50.5 °F 30.17 in Calm   1.0 mph 83 % 0.00 in
05:52 55.6 °F 50.5 °F 30.17 in Calm   1.0 mph 83 % 0.00 in
05:57 55.6 °F 50.5 °F 30.17 in Calm   1.0 mph 83 % 0.00 in
06:02 55.6 °F 50.5 °F 30.17 in Calm   1.0 mph 83 % 0.00 in
06:07 55.6 °F 50.9 °F 30.17 in Calm   1.0 mph 84 % 0.00 in
06:12 55.6 °F 50.9 °F 30.17 in Calm   1.0 mph 84 % 0.00 in
06:17 55.6 °F 50.9 °F 30.17 in Calm   1.0 mph 84 % 0.00 in
06:22 55.6 °F 50.9 °F 30.17 in Calm   1.0 mph 84 % 0.00 in
06:27 55.6 °F 50.9 °F 30.17 in Calm   1.0 mph 84 % 0.00 in
06:32 55.6 °F 50.9 °F 30.17 in Calm   1.0 mph 84 % 0.00 in
06:37 55.6 °F 51.1 °F 30.17 in North 1.0 mph 1.0 mph 85 % 0.00 in
06:42 55.6 °F 51.1 °F 30.17 in Calm   1.0 mph 85 % 0.00 in
06:43 55.6 °F 51.1 °F 30.17 in Calm   1.0 mph 85 % 0.00 in
06:48 55.6 °F 51.1 °F 30.17 in North 1.0 mph 1.0 mph 85 % 0.00 in
06:53 55.6 °F 51.1 °F 30.17 in Calm   1.0 mph 85 % 0.00 in
06:58 55.6 °F 51.1 °F 30.17 in Calm   1.0 mph 85 % 0.00 in
07:03 55.6 °F 51.1 °F 30.17 in Calm   1.0 mph 85 % 0.00 in
07:08 55.6 °F 51.1 °F 30.17 in NNW 1.0 mph 2.0 mph 85 % 0.00 in
07:13 55.6 °F 51.1 °F 30.17 in NNE 1.0 mph 2.0 mph 85 % 0.00 in
07:18 55.8 °F 51.3 °F 30.17 in Calm   2.0 mph 85 % 0.00 in
07:23 55.8 °F 51.3 °F 30.17 in Calm   2.0 mph 85 % 0.00 in
07:28 55.8 °F 51.3 °F 30.17 in Calm   2.0 mph 85 % 0.00 in
07:33 55.8 °F 51.3 °F 30.17 in Calm   1.0 mph 85 % 0.00 in
07:38 55.8 °F 51.3 °F 30.17 in Calm   1.0 mph 85 % 0.00 in
07:43 55.9 °F 51.4 °F 30.17 in Calm   1.0 mph 85 % 0.00 in
07:48 55.9 °F 51.4 °F 30.17 in Calm   1.0 mph 85 % 0.00 in
07:53 55.9 °F 51.4 °F 30.17 in Calm   1.0 mph 85 % 0.00 in
07:58 56.1 °F 51.4 °F 30.17 in North 1.0 mph 1.0 mph 84 % 0.00 in
08:03 56.3 °F 51.4 °F 30.17 in Calm   1.0 mph 84 % 0.00 in
08:08 56.5 °F 51.6 °F 30.17 in Calm   1.0 mph 84 % 0.00 in
08:13 56.5 °F 51.6 °F 30.17 in Calm   1.0 mph 84 % 0.00 in
08:18 56.7 °F 51.8 °F 30.17 in ESE 1.0 mph 1.0 mph 84 % 0.00 in
08:23 56.8 °F 51.8 °F 30.17 in Calm   2.0 mph 83 % 0.00 in
08:28 56.8 °F 51.8 °F 30.17 in Calm   2.0 mph 83 % 0.00 in
08:33 57.0 °F 52.0 °F 30.17 in ESE 1.0 mph 2.0 mph 83 % 0.00 in
08:38 57.0 °F 52.0 °F 30.17 in Calm   2.0 mph 83 % 0.00 in
08:43 57.2 °F 52.2 °F 30.17 in ESE 1.0 mph 2.0 mph 83 % 0.00 in
08:48 57.4 °F 52.3 °F 30.17 in East 2.0 mph 2.0 mph 83 % 0.00 in
08:53 57.6 °F 52.2 °F 30.17 in Calm   2.0 mph 82 % 0.00 in
08:54 57.6 °F 52.2 °F 30.17 in Calm   2.0 mph 82 % 0.00 in
08:59 57.6 °F 52.2 °F 30.17 in East 1.0 mph 2.0 mph 82 % 0.00 in
09:04 57.7 °F 52.3 °F 30.17 in NNE 1.0 mph 2.0 mph 82 % 0.00 in
09:09 57.7 °F 52.3 °F 30.18 in SSE 1.0 mph 3.0 mph 82 % 0.00 in
09:14 57.7 °F 52.3 °F 30.18 in SSE 2.0 mph 3.0 mph 82 % 0.00 in
09:19 57.9 °F 52.5 °F 30.18 in ESE 1.0 mph 3.0 mph 82 % 0.00 in
09:24 57.9 °F 52.5 °F 30.18 in SE 1.0 mph 3.0 mph 82 % 0.00 in
09:29 58.1 °F 52.9 °F 30.18 in Calm   3.0 mph 83 % 0.00 in
09:34 58.3 °F 53.1 °F 30.18 in Calm   2.0 mph 83 % 0.00 in
09:39 58.3 °F 53.1 °F 30.17 in Calm   4.0 mph 83 % 0.00 in
09:44 58.5 °F 53.6 °F 30.17 in Calm   4.0 mph 84 % 0.00 in
09:49 58.6 °F 53.4 °F 30.17 in Calm   4.0 mph 83 % 0.00 in
09:54 59.0 °F 53.8 °F 30.17 in ESE 2.0 mph 2.0 mph 83 % 0.00 in
09:59 59.4 °F 54.1 °F 30.17 in East 1.0 mph 2.0 mph 83 % 0.00 in
10:04 59.5 °F 54.3 °F 30.17 in SSE 1.0 mph 2.0 mph 83 % 0.00 in
10:09 59.7 °F 54.5 °F 30.17 in ESE 1.0 mph 4.0 mph 83 % 0.00 in
10:14 59.7 °F 54.5 °F 30.17 in Calm   4.0 mph 83 % 0.00 in
10:19 59.9 °F 54.7 °F 30.17 in Calm   4.0 mph 83 % 0.00 in
10:24 60.3 °F 55.4 °F 30.17 in ESE 1.0 mph 3.0 mph 84 % 0.00 in
10:29 60.6 °F 55.4 °F 30.17 in Calm   3.0 mph 83 % 0.00 in
10:34 61.0 °F 55.8 °F 30.16 in Calm   3.0 mph 83 % 0.00 in
10:39 61.3 °F 56.1 °F 30.16 in East 1.0 mph 3.0 mph 83 % 0.00 in
10:44 61.3 °F 55.8 °F 30.16 in East 1.0 mph 3.0 mph 82 % 0.00 in
10:49 61.5 °F 56.3 °F 30.16 in Calm   4.0 mph 83 % 0.00 in
10:54 61.5 °F 57.0 °F 30.16 in SSE 2.0 mph 4.0 mph 85 % 0.00 in
10:59 61.5 °F 57.0 °F 30.16 in SE 2.0 mph 5.0 mph 85 % 0.00 in
11:04 61.5 °F 57.0 °F 30.16 in SE 1.0 mph 5.0 mph 85 % 0.00 in
11:09 61.9 °F 57.4 °F 30.16 in SE 1.0 mph 5.0 mph 85 % 0.00 in
11:14 62.1 °F 57.6 °F 30.16 in SE 2.0 mph 4.0 mph 85 % 0.00 in
11:19 62.4 °F 57.9 °F 30.15 in South 3.0 mph 4.0 mph 85 % 0.00 in
11:24 62.4 °F 57.9 °F 30.15 in East 2.0 mph 4.0 mph 85 % 0.00 in
11:29 62.4 °F 57.9 °F 30.15 in SE 3.0 mph 5.0 mph 85 % 0.00 in
11:34 62.2 °F 57.7 °F 30.14 in ENE 2.0 mph 5.0 mph 85 % 0.00 in
11:39 62.2 °F 57.9 °F 30.14 in SE 2.0 mph 5.0 mph 86 % 0.00 in
11:45 62.4 °F 57.9 °F 30.14 in ESE 3.0 mph 5.0 mph 85 % 0.00 in
11:49 62.8 °F 58.3 °F 30.13 in ESE 5.0 mph 6.0 mph 85 % 0.00 in
11:54 62.8 °F 58.3 °F 30.13 in South 2.0 mph 6.0 mph 85 % 0.00 in
12:00 63.0 °F 58.5 °F 30.13 in ESE 2.0 mph 6.0 mph 85 % 0.00 in
12:05 63.1 °F 58.8 °F 30.13 in SSE 4.0 mph 6.0 mph 86 % 0.00 in
12:10 63.7 °F 59.4 °F 30.13 in South 2.0 mph 6.0 mph 86 % 0.00 in
12:15 63.9 °F 59.2 °F 30.12 in SE 2.0 mph 6.0 mph 85 % 0.00 in
12:20 64.0 °F 59.4 °F 30.12 in SSE 1.0 mph 5.0 mph 85 % 0.00 in
12:25 64.2 °F 59.5 °F 30.12 in East 1.0 mph 5.0 mph 85 % 0.00 in
12:30 64.4 °F 59.7 °F 30.11 in ESE 3.0 mph 5.0 mph 85 % 0.00 in
12:35 64.6 °F 59.9 °F 30.11 in SSE 4.0 mph 5.0 mph 85 % 0.00 in
12:40 64.8 °F 60.4 °F 30.10 in SSE 1.0 mph 6.0 mph 86 % 0.00 in
12:45 65.1 °F 60.4 °F 30.10 in ENE 3.0 mph 6.0 mph 85 % 0.00 in
12:50 65.8 °F 61.2 °F 30.09 in ESE 1.0 mph 6.0 mph 85 % 0.00 in
12:55 66.7 °F 61.7 °F 30.09 in SE 2.0 mph 6.0 mph 84 % 0.00 in
13:00 67.3 °F 61.5 °F 30.08 in East 1.0 mph 5.0 mph 82 % 0.00 in
13:05 67.6 °F 61.9 °F 30.08 in SW 2.0 mph 7.0 mph 82 % 0.00 in
13:10 67.8 °F 61.7 °F 30.08 in SE 5.0 mph 7.0 mph 81 % 0.00 in
13:15 67.6 °F 61.9 °F 30.08 in ESE 2.0 mph 7.0 mph 82 % 0.00 in
13:20 67.6 °F 62.2 °F 30.07 in SE 3.0 mph 8.0 mph 83 % 0.00 in
13:25 67.6 °F 61.9 °F 30.07 in SE 1.0 mph 8.0 mph 82 % 0.00 in
13:30 67.6 °F 61.9 °F 30.07 in ESE 4.0 mph 8.0 mph 82 % 0.00 in
13:35 67.6 °F 61.9 °F 30.07 in ESE 2.0 mph 6.0 mph 82 % 0.00 in
13:40 67.6 °F 61.9 °F 30.06 in SE 2.0 mph 5.0 mph 82 % 0.00 in
13:45 68.0 °F 62.2 °F 30.06 in SE 4.0 mph 6.0 mph 82 % 0.00 in
13:50 68.2 °F 62.4 °F 30.06 in SE 2.0 mph 6.0 mph 82 % 0.00 in
13:55 68.5 °F 62.8 °F 30.06 in Calm   6.0 mph 82 % 0.00 in
14:00 68.7 °F 62.6 °F 30.05 in ESE 4.0 mph 6.0 mph 81 % 0.00 in
14:05 68.7 °F 62.6 °F 30.05 in SE 1.0 mph 5.0 mph 81 % 0.00 in
14:10 68.7 °F 62.6 °F 30.05 in South 4.0 mph 5.0 mph 81 % 0.00 in
14:15 68.5 °F 62.8 °F 30.04 in East 3.0 mph 6.0 mph 82 % 0.00 in
14:20 68.5 °F 62.8 °F 30.04 in North 2.0 mph 6.0 mph 82 % 0.00 in
14:25 68.7 °F 63.0 °F 30.04 in East 2.0 mph 6.0 mph 82 % 0.00 in
14:30 68.9 °F 63.1 °F 30.04 in Calm   4.0 mph 82 % 0.00 in
14:35 69.1 °F 63.3 °F 30.03 in SSE 3.0 mph 4.0 mph 82 % 0.00 in
14:40 69.3 °F 63.1 °F 30.03 in ENE 2.0 mph 4.0 mph 81 % 0.00 in
14:45 69.4 °F 63.7 °F 30.03 in SSW 3.0 mph 5.0 mph 82 % 0.00 in
14:50 69.6 °F 63.9 °F 30.03 in SSW 2.0 mph 5.0 mph 82 % 0.00 in
14:55 69.6 °F 63.9 °F 30.03 in ESE 1.0 mph 5.0 mph 82 % 0.00 in
15:00 69.6 °F 63.9 °F 30.02 in SE 1.0 mph 4.0 mph 82 % 0.00 in
15:05 69.8 °F 64.0 °F 30.02 in ESE 1.0 mph 3.0 mph 82 % 0.00 in
15:10 70.0 °F 64.2 °F 30.02 in Calm   3.0 mph 82 % 0.00 in
15:15 70.2 °F 64.4 °F 30.02 in Calm   3.0 mph 82 % 0.00 in
15:20 70.3 °F 63.9 °F 30.02 in Calm   3.0 mph 80 % 0.00 in
15:25 70.3 °F 63.9 °F 30.01 in East 1.0 mph 2.0 mph 80 % 0.00 in
15:30 70.5 °F 64.4 °F 30.01 in Calm   2.0 mph 81 % 0.00 in
15:35 70.9 °F 64.4 °F 30.01 in ENE 1.0 mph 2.0 mph 80 % 0.00 in
15:40 71.1 °F 64.6 °F 30.01 in ESE 1.0 mph 2.0 mph 80 % 0.00 in
15:45 71.1 °F 64.6 °F 30.01 in East 2.0 mph 3.0 mph 80 % 0.00 in
15:50 71.1 °F 64.6 °F 30.01 in Calm   3.0 mph 80 % 0.00 in
15:55 71.1 °F 64.6 °F 30.01 in East 3.0 mph 3.0 mph 80 % 0.00 in
16:00 71.1 °F 64.6 °F 30.01 in ESE 2.0 mph 3.0 mph 80 % 0.00 in
16:06 70.9 °F 64.8 °F 30.00 in SE 2.0 mph 5.0 mph 81 % 0.00 in
16:11 70.9 °F 65.1 °F 30.00 in ESE 3.0 mph 5.0 mph 82 % 0.00 in
16:16 70.7 °F 64.9 °F 30.00 in SW 2.0 mph 5.0 mph 82 % 0.00 in
16:21 70.5 °F 65.1 °F 30.00 in ENE 1.0 mph 3.0 mph 83 % 0.00 in
16:26 70.3 °F 65.3 °F 30.00 in Calm   3.0 mph 84 % 0.00 in
16:31 70.3 °F 65.7 °F 29.99 in East 1.0 mph 3.0 mph 85 % 0.00 in
16:36 70.2 °F 65.8 °F 30.00 in Calm   2.0 mph 86 % 0.00 in
16:41 70.0 °F 65.7 °F 29.99 in Calm   2.0 mph 86 % 0.00 in
16:46 70.0 °F 66.0 °F 29.99 in Calm   2.0 mph 87 % 0.00 in
16:51 69.8 °F 65.8 °F 29.99 in Calm   3.0 mph 87 % 0.00 in
16:56 69.6 °F 65.7 °F 29.99 in Calm   3.0 mph 87 % 0.00 in
17:01 69.6 °F 65.7 °F 29.99 in Calm   3.0 mph 87 % 0.00 in
17:06 69.6 °F 65.7 °F 29.99 in SE 1.0 mph 2.0 mph 87 % 0.00 in
17:07 69.6 °F 65.7 °F 29.99 in ESE 2.0 mph 2.0 mph 87 % 0.00 in
17:12 69.6 °F 65.7 °F 29.99 in Calm   2.0 mph 87 % 0.00 in
17:17 69.6 °F 65.7 °F 29.99 in Calm   2.0 mph 87 % 0.00 in
17:22 69.4 °F 65.5 °F 29.99 in Calm   2.0 mph 87 % 0.00 in
17:27 69.4 °F 65.5 °F 29.99 in East 1.0 mph 2.0 mph 87 % 0.00 in
17:32 69.4 °F 65.5 °F 29.99 in Calm   2.0 mph 87 % 0.00 in
17:37 69.4 °F 65.5 °F 29.99 in Calm   2.0 mph 87 % 0.00 in
17:42 69.3 °F 65.3 °F 29.99 in Calm   2.0 mph 87 % 0.00 in
17:47 69.3 °F 65.5 °F 29.99 in Calm   1.0 mph 88 % 0.00 in
17:52 69.3 °F 65.5 °F 29.99 in Calm   1.0 mph 88 % 0.00 in
17:57 69.3 °F 65.5 °F 29.99 in ESE 1.0 mph 1.0 mph 88 % 0.00 in
18:02 69.1 °F 65.3 °F 29.99 in ESE 1.0 mph 2.0 mph 88 % 0.00 in
18:07 69.1 °F 65.7 °F 29.99 in ESE 1.0 mph 3.0 mph 89 % 0.00 in
18:12 69.1 °F 65.7 °F 29.99 in SE 1.0 mph 3.0 mph 89 % 0.00 in
18:17 69.3 °F 66.2 °F 29.99 in Calm   5.0 mph 90 % 0.00 in
18:22 69.3 °F 66.2 °F 29.99 in East 2.0 mph 5.0 mph 90 % 0.00 in
18:27 69.3 °F 66.2 °F 29.99 in ESE 3.0 mph 5.0 mph 90 % 0.00 in
18:32 69.3 °F 66.2 °F 29.99 in SSE 1.0 mph 5.0 mph 90 % 0.00 in
18:37 69.3 °F 66.2 °F 29.99 in SSE 2.0 mph 5.0 mph 90 % 0.00 in
18:42 69.3 °F 66.6 °F 29.99 in SSE 1.0 mph 5.0 mph 91 % 0.00 in
18:47 69.3 °F 66.6 °F 29.99 in Calm   4.0 mph 91 % 0.00 in
18:52 69.1 °F 66.4 °F 29.99 in Calm   4.0 mph 91 % 0.00 in
18:57 69.1 °F 66.4 °F 29.99 in East 2.0 mph 4.0 mph 91 % 0.00 in
19:02 68.7 °F 66.0 °F 29.99 in SSE 3.0 mph 4.0 mph 91 % 0.00 in
19:07 68.7 °F 66.0 °F 29.99 in SE 1.0 mph 4.0 mph 91 % 0.00 in
19:12 68.5 °F 65.8 °F 29.99 in ESE 2.0 mph 4.0 mph 91 % 0.00 in
19:17 68.4 °F 66.0 °F 29.99 in East 3.0 mph 4.0 mph 92 % 0.00 in
19:22 68.4 °F 66.0 °F 29.99 in ESE 1.0 mph 4.0 mph 92 % 0.00 in
19:27 68.2 °F 65.8 °F 29.99 in SE 3.0 mph 4.0 mph 92 % 0.00 in
19:32 68.2 °F 65.8 °F 30.00 in SE 2.0 mph 4.0 mph 92 % 0.00 in
19:37 67.8 °F 65.5 °F 30.00 in South 5.0 mph 6.0 mph 92 % 0.00 in
19:42 67.6 °F 65.3 °F 30.00 in SE 3.0 mph 6.0 mph 92 % 0.00 in
19:47 67.6 °F 65.3 °F 30.00 in SE 4.0 mph 6.0 mph 92 % 0.00 in
19:52 67.5 °F 65.1 °F 30.00 in East 3.0 mph 6.0 mph 92 % 0.00 in
19:57 67.3 °F 64.9 °F 30.00 in ESE 1.0 mph 6.0 mph 92 % 0.00 in
20:02 67.3 °F 65.1 °F 30.00 in East 2.0 mph 5.0 mph 93 % 0.00 in
20:07 67.1 °F 64.9 °F 30.00 in SSE 2.0 mph 6.0 mph 93 % 0.00 in
20:12 67.1 °F 64.9 °F 30.00 in South 3.0 mph 8.0 mph 93 % 0.00 in
20:17 66.9 °F 64.8 °F 30.00 in SSE 3.0 mph 8.0 mph 93 % 0.00 in
20:22 66.9 °F 64.8 °F 30.00 in SSE 1.0 mph 8.0 mph 93 % 0.00 in
20:27 66.7 °F 64.6 °F 30.00 in ESE 4.0 mph 6.0 mph 93 % 0.00 in
20:32 66.7 °F 64.9 °F 30.00 in South 1.0 mph 6.0 mph 94 % 0.00 in
20:37 66.7 °F 64.9 °F 30.01 in ESE 2.0 mph 6.0 mph 94 % 0.00 in
20:42 66.7 °F 64.9 °F 30.01 in SE 3.0 mph 6.0 mph 94 % 0.00 in
20:47 66.6 °F 64.8 °F 30.01 in ESE 3.0 mph 6.0 mph 94 % 0.00 in
20:52 66.6 °F 64.8 °F 30.00 in SE 2.0 mph 6.0 mph 94 % 0.00 in
20:57 66.6 °F 64.8 °F 30.00 in SE 2.0 mph 6.0 mph 94 % 0.00 in
21:02 66.4 °F 64.9 °F 30.00 in SSE 2.0 mph 6.0 mph 95 % 0.00 in
21:07 66.4 °F 64.9 °F 30.00 in ESE 2.0 mph 6.0 mph 95 % 0.00 in
21:12 66.4 °F 64.9 °F 30.00 in ESE 2.0 mph 6.0 mph 95 % 0.01 in
21:17 66.2 °F 64.8 °F 30.00 in South 2.0 mph 5.0 mph 95 % 0.01 in
21:22 66.0 °F 64.8 °F 30.00 in ESE 2.0 mph 4.0 mph 96 % 0.01 in
21:27 66.0 °F 64.8 °F 30.00 in ESE 2.0 mph 3.0 mph 96 % 0.01 in
21:32 66.0 °F 64.8 °F 30.00 in Calm   3.0 mph 96 % 0.01 in
21:37 66.0 °F 64.8 °F 30.00 in ESE 1.0 mph 3.0 mph 96 % 0.01 in
21:42 65.8 °F 64.6 °F 30.00 in SE 1.0 mph 3.0 mph 96 % 0.01 in
21:47 65.8 °F 64.6 °F 30.00 in ESE 1.0 mph 2.0 mph 96 % 0.02 in
21:52 65.8 °F 64.9 °F 30.00 in Calm   2.0 mph 97 % 0.02 in
21:57 65.8 °F 64.9 °F 30.00 in SE 1.0 mph 2.0 mph 97 % 0.02 in
22:02 65.8 °F 64.9 °F 30.00 in Calm   3.0 mph 97 % 0.02 in
22:07 65.8 °F 64.9 °F 30.00 in SE 1.0 mph 3.0 mph 97 % 0.01 in
22:12 66.0 °F 65.1 °F 29.99 in East 1.0 mph 3.0 mph 97 % 0.01 in
22:17 66.0 °F 65.1 °F 29.99 in Calm   2.0 mph 97 % 0.01 in
22:22 66.0 °F 65.1 °F 29.99 in ESE 1.0 mph 2.0 mph 97 % 0.01 in
22:27 66.0 °F 65.5 °F 29.99 in South 1.0 mph 2.0 mph 98 % 0.01 in
22:32 66.2 °F 65.7 °F 29.99 in SSE 1.0 mph 5.0 mph 98 % 0.01 in
22:37 66.4 °F 65.8 °F 29.99 in SSE 1.0 mph 5.0 mph 98 % 0.02 in
22:42 66.4 °F 65.8 °F 29.99 in SSE 1.0 mph 5.0 mph 98 % 0.02 in
22:47 66.4 °F 65.8 °F 29.99 in South 1.0 mph 4.0 mph 98 % 0.01 in
22:52 66.4 °F 65.8 °F 29.99 in SSE 1.0 mph 3.0 mph 98 % 0.01 in
22:57 66.4 °F 65.8 °F 29.99 in SSE 2.0 mph 3.0 mph 98 % 0.01 in
23:02 66.4 °F 65.8 °F 29.99 in ESE 2.0 mph 3.0 mph 98 % 0.01 in
23:07 66.4 °F 65.8 °F 29.99 in South 1.0 mph 3.0 mph 98 % 0.01 in
23:12 66.4 °F 65.8 °F 29.99 in SSE 3.0 mph 3.0 mph 98 % 0.01 in
23:17 66.4 °F 65.8 °F 29.99 in SE 1.0 mph 3.0 mph 98 % 0.01 in
23:22 66.4 °F 65.8 °F 29.99 in SSE 1.0 mph 3.0 mph 98 % 0.01 in
23:27 66.6 °F 66.0 °F 29.98 in SSW 1.0 mph 3.0 mph 98 % 0.01 in
23:32 66.6 °F 66.0 °F 29.99 in SSE 1.0 mph 3.0 mph 98 % 0.01 in
23:37 66.6 °F 66.2 °F 29.99 in SE 3.0 mph 4.0 mph 99 % 0.00 in
23:42 66.6 °F 66.2 °F 29.98 in SSE 1.0 mph 4.0 mph 99 % 0.01 in
23:47 66.6 °F 66.2 °F 29.98 in SSW 4.0 mph 4.0 mph 99 % 0.01 in
23:52 66.6 °F 66.2 °F 29.98 in SSW 3.0 mph 5.0 mph 99 % 0.01 in
23:57 66.4 °F 66.0 °F 29.98 in SSW 5.0 mph 8.0 mph 99 % 0.01 in
Spring, Texas: Villages of Bridgestone
Compliments of Weather Underground - 3 mb

Script developed by  Jim McMurry - jmcmurry@mwt.net Adapted for the template by  Wim van der Kuil - Leuven-Template.eu

You find our weather info also at:

UK Metoffice

WeatherCloud

Weather Underground

Mid-South Weather Network

AWEKAS

Citizen Weather Observer Program (CWOP)

HAMweather, WeatherForYou, PWS Weather

Equipment we use:

Weather-station
Davis Vantage Vue

Weather-program
Meteohub

Weather-server
Debian 7.9 x86 (Guest)

Provider
DreamHost

Davis Vantage Vue

Meteohub

Debian 7.9 x86 (Guest)

DreamHost